Temp
4 3 2 3 2 2 3 3 4 6 6 6 6 6 7 8 8 8 8 7 8 9 9 9 9 9 9 9 9 9 9 9 9 9 9 9 9 9 9 8 8 9 8 9 9 10 9 9 9
3 2 1 2 1 2 4 4 5 5 6 6 6 5 6 6 7 7 7 7 8 9 9 9 10 9 9 9 9 9 9 9 9 9 9 8 8 8 8 8 8 9 9 9 9 9 9 9 9
1 0 0 0 -0 1 4 7 6 6 6 5 5 5 5 5 7 7 7 7 9 9 9 9 9 9 9 10 9 9 9 9 9 8 9 8 8 8 8 8 8 9 9 9 9 9 10 9 9
0 -0 -1 -1 1 3 3 6 7 7 6 5 4 4 4 4 5 6 5 6 8 9 9 9 8 9 9 9 9 9 9 8 9 8 8 8 8 8 8 8 8 8 9 9 9 9 9 10 9
-2 -1 -1 -1 0 2 3 4 5 6 4 5 4 4 4 5 4 6 5 6 7 8 8 8 9 8 9 9 9 9 9 8 8 8 8 8 8 8 8 8 8 8 9 9 9 9 9 9 9
-3 -2 -1 -1 -0 1 2 3 4 4 3 3 3 4 4 3 4 6 5 6 6 7 8 8 8 8 8 8 8 8 8 9 8 8 8 8 8 7 7 8 8 8 9 9 9 9 9 9 9
-3 -3 -2 -1 -1 -1 1 2 3 3 3 3 3 2 4 4 4 5 5 6 6 6 7 7 7 8 8 8 8 8 8 8 8 8 8 8 8 7 7 7 8 8 8 9 9 9 9 9 9
-5 -4 -4 -2 -2 -1 -0 1 1 3 3 2 2 3 3 4 3 4 5 5 6 5 6 7 6 7 7 7 7 7 8 8 8 8 8 8 8 7 7 7 8 8 8 8 9 9 9 9 9
-8 -7 -5 -4 -2 -2 -2 -1 0 0 1 3 2 2 3 3 3 4 5 6 5 6 5 7 6 6 6 7 7 7 7 7 7 8 8 7 7 7 7 7 7 8 8 8 8 8 8 9 9
-8 -7 -6 -4 -4 -3 -3 -2 -2 -1 0 0 2 1 2 3 3 3 5 6 6 6 6 5 6 6 6 6 7 6 6 6 7 7 7 7 7 7 6 7 7 8 8 8 8 8 8 8 8
-8 -8 -7 -7 -6 -6 -5 -4 -4 -3 -1 -1 0 0 1 2 2 2 4 4 5 5 6 6 5 6 6 6 6 6 6 6 6 6 7 7 7 6 7 7 7 8 8 8 8 8 8 8 8
-9 -8 -8 -8 -8 -7 -8 -6 -8 -7 -4 -1 -0 -1 0 1 2 2 3 3 5 4 4 6 6 5 6 6 6 6 6 6 6 6 6 7 7 7 7 7 7 7 8 8 8 8 8 8 8
-9 -9 -9 -9 -9 -9 -8 -8 -8 -7 -7 -3 -2 -1 -0 1 0 2 2 4 4 4 4 5 5 5 5 6 6 6 6 6 6 6 6 7 7 6 7 7 7 7 8 8 8 7 7 7 8
-9 -9 -9 -9 -9 -9 -9 -9 -9 -7 -8 -6 -3 -2 -1 0 1 1 2 3 2 4 4 4 4 5 5 5 5 5 5 6 6 6 6 6 6 6 6 6 7 7 7 8 7 7 7 7 7
-9 -9 -9 -9 -9 -9 -9 -9 -8 -7 -7 -7 -5 -3 -1 1 0 0 1 2 2 3 3 3 4 5 5 5 5 4 4 3 6 5 5 5 5 5 6 6 7 7 7 7 7 7 7 7 7
-10 -10 -10 -9 -9 -9 -9 -9 -9 -8 -7 -7 -6 -3 -2 1 -0 -0 1 1 2 2 2 3 3 4 5 5 5 5 4 4 4 5 5 5 5 5 5 6 7 6 6 6 7 7 7 7 7
-10 -10 -10 -9 -9 -9 -8 -9 -9 -8 -8 -6 -6 -4 -4 -2 -1 0 -0 2 1 1 0 3 3 3 4 4 4 5 5 4 4 5 4 4 4 5 5 6 6 6 6 6 6 6 6 7 6
-9 -9 -10 -9 -8 -8 -9 -8 -8 -8 -8 -7 -6 -6 -4 -5 -1 1 -0 0 0 1 2 2 4 3 3 3 4 4 4 4 4 4 4 5 4 4 4 5 6 6 6 6 6 6 6 6 6
-10 -10 -10 -9 -9 -9 -9 -9 -8 -8 -8 -7 -7 -5 -4 -1 -1 -1 -0 -0 -0 1 2 1 2 3 3 3 4 4 4 4 3 3 4 4 4 4 4 4 5 5 5 5 6 6 6 6 6
-11 -11 -10 -10 -10 -9 -9 -9 -9 -8 -8 -7 -7 -5 -5 -2 -3 -2 -1 -1 0 1 2 1 2 2 2 3 4 4 4 3 3 3 4 4 3 4 3 4 3 4 4 5 5 5 6 5 6
-11 -11 -10 -10 -9 -9 -9 -9 -9 -8 -8 -7 -7 -5 -4 -4 -3 -2 -1 -1 0 1 1 1 2 2 2 3 3 3 3 3 3 3 3 3 3 3 2 4 3 2 3 5 5 5 5 6 6
-11 -10 -10 -11 -10 -9 -9 -8 -7 -6 -6 -7 -7 -7 -6 -5 -3 -2 -1 -1 -0 1 1 1 2 2 2 2 3 3 3 4 4 3 3 3 3 2 3 3 4 2 4 4 5 5 5 5 5
-11 -11 -10 -11 -11 -10 -8 -8 -7 -7 -6 -10 -7 -7 -6 -4 -4 -3 -2 -1 -0 0 1 1 2 2 2 3 3 3 3 3 4 3 3 3 3 2 2 2 4 3 3 4 4 4 4 4 4
-11 -11 -11 -11 -11 -9 -8 -9 -8 -11 -11 -9 -8 -7 -6 -3 -5 -2 -2 -1 -0 -0 0 1 1 2 2 2 3 2 3 3 4 3 3 2 2 3 2 2 2 3 3 3 4 4 4 4 4
-11 -11 -8 -8 -9 -7 -6 -7 -13 -14 -11 -10 -9 -7 -6 -4 -5 -3 -2 -1 -1 -0 1 1 1 2 2 2 2 2 3 3 3 2 2 3 2 2 3 2 2 3 2 3 3 3 3 3 3
-12 -12 -9 -8 -7 -5 -7 -7 -15 -15 -13 -12 -10 -7 -6 -5 -4 -5 -3 -2 -1 -0 1 -0 1 1 1 2 2 2 3 3 2 2 2 2 3 3 2 2 2 2 2 1 3 3 3 3 3
-13 -13 -13 -12 -8 -7 -10 -14 -15 -15 -14 -13 -11 -8 -7 -5 -4 -5 -3 -2 -1 -0 1 0 1 1 1 1 1 1 2 2 2 2 2 2 2 2 3 2 2 2 2 1 2 3 3 3 2
-14 -15 -14 -11 -8 -7 -7 -9 -13 -15 -14 -13 -12 -9 -7 -6 -5 -5 -5 -5 -2 -1 -1 0 1 0 1 1 1 1 1 1 1 2 2 2 2 3 2 3 2 2 2 1 -0 2 2 2 2
-15 -16 -16 -16 -13 -7 -7 -12 -19 -19 -17 -15 -13 -11 -9 -6 -5 -5 -5 -5 -4 -2 -2 0 1 1 1 0 0 1 0 1 1 1 2 2 1 2 3 2 2 2 1 1 1 1 2 2 2
-16 -17 -18 -16 -12 -14 -10 -15 -19 -18 -18 -16 -15 -13 -11 -8 -7 -5 -5 -4 -5 -4 -3 -3 0 0 0 0 0 -0 0 1 0 0 0 1 1 1 1 1 1 1 1 1 -0 1 1 1 2
Height
3074 3077 3082 3085 3086 3062 3031 3047 3064 3068 3072 3076 3080 3081 3086 3089 3090 3091 3088 3091 3095 3100 3102 3107 3112 3118 3121 3124 3127 3131 3135 3138 3141 3144 3145 3148 3151 3154 3156 3158 3160 3161 3163 3164 3166 3167 3168 3169 3171
3066 3069 3076 3075 3063 3045 3017 3052 3053 3062 3069 3069 3074 3075 3079 3078 3087 3083 3085 3086 3091 3098 3099 3103 3108 3115 3120 3122 3126 3129 3133 3136 3140 3144 3146 3147 3150 3153 3155 3158 3160 3161 3163 3165 3167 3168 3170 3170 3173
3056 3060 3067 3058 3040 2995 3038 3048 3053 3060 3065 3062 3067 3070 3074 3072 3081 3085 3081 3083 3087 3092 3096 3101 3106 3110 3116 3120 3124 3127 3131 3135 3138 3142 3146 3147 3150 3153 3155 3157 3160 3161 3163 3166 3168 3170 3171 3172 3173
3051 3055 3052 3036 3006 2992 3025 3046 3056 3056 3059 3059 3060 3065 3065 3072 3072 3082 3077 3081 3084 3088 3091 3097 3103 3108 3112 3117 3122 3125 3129 3132 3136 3140 3144 3147 3149 3152 3155 3156 3159 3161 3162 3165 3168 3170 3171 3173 3174
3041 3041 3036 3020 2992 3022 3034 3043 3049 3050 3051 3052 3052 3056 3060 3062 3065 3073 3073 3078 3082 3085 3087 3093 3098 3103 3109 3114 3118 3123 3126 3130 3134 3138 3141 3146 3148 3151 3154 3156 3158 3160 3162 3165 3167 3170 3172 3173 3176
3032 3030 3021 3007 2998 3023 3028 3042 3046 3044 3045 3047 3046 3053 3057 3058 3060 3068 3069 3074 3077 3081 3083 3089 3094 3099 3104 3109 3114 3120 3124 3128 3131 3135 3139 3143 3146 3149 3152 3155 3157 3159 3161 3164 3166 3169 3173 3174 3174
3021 3021 3012 3006 3003 3011 3023 3040 3036 3039 3039 3042 3046 3044 3053 3054 3056 3063 3065 3070 3073 3076 3079 3084 3089 3094 3100 3105 3109 3115 3120 3125 3129 3132 3135 3140 3144 3147 3150 3153 3156 3158 3160 3163 3165 3167 3171 3175 3174
3015 3012 3007 3003 3003 3000 3016 3023 3024 3032 3031 3039 3038 3033 3043 3054 3051 3057 3059 3064 3068 3071 3075 3079 3084 3089 3095 3100 3106 3110 3116 3121 3125 3129 3132 3136 3141 3145 3147 3150 3154 3156 3159 3162 3164 3167 3168 3174 3176
3011 3008 3002 3002 2998 3002 3014 3009 3012 3009 3012 3025 3027 3031 3041 3048 3047 3051 3053 3057 3060 3065 3069 3074 3079 3084 3090 3096 3101 3106 3111 3117 3121 3124 3129 3133 3136 3140 3144 3147 3151 3154 3157 3160 3163 3165 3167 3171 3175
3006 3003 2995 2999 3002 3003 2996 3000 2998 2999 3003 3006 3018 3026 3035 3040 3040 3042 3044 3048 3052 3057 3064 3068 3073 3079 3085 3090 3096 3102 3106 3111 3115 3119 3124 3127 3133 3137 3139 3144 3148 3151 3154 3157 3160 3164 3166 3169 3173
3000 2993 2994 2991 2996 2995 2989 2985 2989 2987 2989 2999 3009 3021 3029 3031 3035 3032 3038 3042 3047 3054 3060 3064 3069 3074 3080 3085 3091 3097 3100 3104 3108 3113 3118 3122 3128 3132 3135 3139 3143 3147 3150 3154 3158 3162 3164 3167 3171
2992 2989 2987 2984 2987 2985 2981 2980 2977 2980 2979 2990 2995 2997 3002 3010 3022 3026 3033 3038 3042 3046 3053 3059 3064 3069 3075 3080 3084 3089 3093 3098 3102 3106 3111 3117 3123 3128 3132 3136 3140 3144 3148 3152 3156 3159 3163 3166 3167
2984 2982 2981 2979 2978 2977 2975 2970 2969 2968 2974 2979 2982 2983 2994 3003 3005 3018 3026 3031 3034 3039 3046 3053 3058 3063 3068 3074 3078 3083 3087 3090 3094 3099 3104 3112 3119 3124 3128 3132 3136 3140 3145 3149 3153 3157 3160 3163 3165
2978 2975 2973 2973 2971 2971 2968 2962 2965 2962 2968 2968 2969 2972 2981 2989 2998 3013 3018 3023 3026 3032 3039 3046 3052 3057 3062 3067 3070 3075 3071 3077 3083 3091 3100 3108 3115 3120 3124 3128 3132 3137 3140 3146 3151 3155 3158 3161 3163
2970 2968 2966 2964 2963 2962 2964 2953 2955 2955 2962 2960 2964 2964 2970 2978 2982 2987 3009 3013 3019 3025 3032 3039 3045 3050 3055 3060 3064 3066 3072 3073 3058 3083 3090 3099 3109 3115 3120 3124 3128 3133 3137 3142 3146 3150 3155 3159 3161
2964 2963 2957 2956 2959 2957 2959 2941 2952 2952 2954 2953 2950 2955 2961 2968 2975 2980 2991 3004 3012 3019 3022 3029 3038 3044 3048 3053 3056 3058 3070 3075 3079 3076 3081 3092 3101 3108 3114 3119 3124 3129 3133 3138 3143 3148 3151 3156 3159
2957 2952 2952 2948 2952 2950 2949 2940 2945 2945 2946 2945 2945 2948 2952 2958 2967 2973 2984 2997 3004 3009 3017 3019 3029 3035 3042 3046 3047 3054 3063 3070 3074 3074 3079 3084 3094 3102 3108 3115 3120 3124 3129 3135 3139 3143 3148 3154 3156
2949 2948 2945 2941 2943 2942 2938 2934 2936 2937 2937 2939 2941 2943 2942 2951 2958 2969 2978 2992 2997 3000 3009 3013 3018 3027 3034 3037 3041 3048 3056 3061 3065 3071 3076 3080 3087 3091 3101 3108 3114 3119 3124 3129 3134 3139 3144 3150 3153
2947 2943 2939 2936 2936 2934 2930 2929 2929 2931 2932 2932 2935 2934 2937 2945 2953 2961 2971 2983 2985 2990 2998 3004 3008 3017 3023 3024 3033 3040 3046 3053 3059 3064 3070 3070 3079 3082 3094 3101 3109 3114 3120 3126 3130 3136 3141 3146 3150
2943 2938 2932 2929 2928 2926 2923 2921 2921 2923 2923 2925 2927 2930 2934 2933 2943 2952 2960 2971 2977 2983 2990 2996 3001 3009 3013 3019 3027 3036 3043 3049 3056 3059 3064 3067 3074 3078 3088 3095 3102 3110 3116 3121 3126 3132 3137 3142 3147
2936 2931 2927 2925 2922 2918 2917 2912 2911 2913 2916 2919 2920 2924 2927 2933 2938 2945 2948 2958 2967 2975 2982 2989 2994 3001 3005 3013 3020 3028 3034 3039 3045 3050 3057 3064 3069 3073 3082 3089 3094 3103 3111 3118 3123 3127 3133 3139 3142
2928 2927 2922 2919 2918 2912 2908 2903 2898 2900 2902 2912 2918 2914 2917 2919 2925 2927 2942 2948 2959 2968 2975 2982 2988 2995 2998 3005 3012 3020 3028 3033 3040 3048 3053 3059 3063 3067 3074 3083 3086 3094 3105 3111 3118 3123 3130 3136 3141
2922 2920 2916 2913 2910 2908 2900 2903 2896 2892 2894 2899 2903 2911 2914 2918 2923 2931 2931 2941 2951 2961 2968 2974 2980 2987 2991 2998 3005 3014 3020 3027 3033 3039 3046 3052 3057 3063 3069 3076 3082 3087 3098 3105 3112 3118 3124 3131 3136
2919 2914 2908 2906 2907 2900 2892 2898 2893 2892 2891 2893 2898 2903 2907 2909 2914 2917 2920 2925 2939 2950 2958 2967 2972 2978 2985 2992 3000 3005 3012 3016 3024 3030 3037 3042 3050 3055 3062 3069 3077 3084 3092 3099 3107 3113 3119 3126 3131
2917 2912 2901 2899 2897 2884 2881 2889 2896 2893 2891 2890 2892 2894 2896 2902 2909 2914 2918 2922 2930 2941 2949 2955 2964 2970 2978 2984 2991 2997 3004 3010 3017 3024 3030 3036 3041 3046 3053 3060 3068 3077 3084 3094 3100 3106 3112 3120 3125
2916 2916 2908 2894 2881 2878 2880 2884 2893 2891 2891 2891 2890 2892 2896 2900 2905 2908 2912 2916 2920 2931 2937 2942 2955 2963 2970 2977 2984 2990 2996 3002 3009 3016 3021 3026 3032 3040 3046 3053 3060 3068 3076 3085 3093 3099 3106 3112 3118
2917 2916 2911 2906 2890 2885 2886 2894 2894 2891 2890 2890 2890 2889 2889 2894 2901 2904 2906 2913 2918 2927 2928 2930 2943 2953 2963 2971 2976 2983 2988 2993 3000 3008 3014 3018 3025 3029 3036 3043 3051 3060 3068 3074 3086 3092 3099 3105 3111
2926 2921 2912 2903 2887 2875 2878 2886 2892 2889 2888 2886 2885 2885 2888 2892 2898 2900 2905 2905 2914 2920 2922 2923 2933 2944 2955 2962 2968 2975 2982 2988 2993 2999 3004 3009 3013 3017 3023 3031 3041 3050 3058 3064 3074 3083 3091 3097 3103
2926 2922 2920 2914 2901 2883 2874 2891 2894 2892 2889 2887 2885 2885 2886 2889 2893 2897 2898 2902 2904 2911 2910 2918 2925 2934 2945 2954 2962 2967 2974 2981 2983 2989 2995 3000 3005 3009 3015 3024 3033 3041 3048 3057 3063 3073 3082 3088 3096
2928 2925 2921 2918 2902 2899 2890 2895 2891 2891 2890 2888 2886 2883 2882 2883 2887 2890 2894 2901 2908 2912 2911 2911 2917 2931 2940 2947 2953 2961 2968 2973 2978 2981 2987 2992 2997 3002 3008 3017 3026 3033 3040 3048 3054 3064 3073 3082 3089
Wind_Speed
38 36 31 30 31 34 60 49 35 28 26 32 35 34 32 34 33 19 20 35 35 27 30 31 31 28 26 23 23 24 24 21 19 20 21 20 19 18 15 13 10 8 7 6 8 8 9 10 8
38 38 34 34 44 46 56 42 48 35 30 21 34 32 35 30 29 29 22 20 32 33 26 33 36 31 27 24 24 24 25 23 21 21 21 20 19 18 16 14 11 10 8 7 8 10 8 11 10
39 35 38 41 51 77 43 33 32 41 29 35 30 37 33 24 34 29 28 20 18 37 35 33 36 35 31 28 24 25 26 25 23 21 21 21 20 19 17 14 12 12 11 9 9 9 11 10 12
38 34 43 47 66 78 57 36 27 19 34 35 27 26 36 36 30 32 27 21 21 23 42 36 38 38 34 31 27 25 26 27 25 24 23 21 19 19 17 15 12 12 11 12 11 11 12 12 12
40 43 45 52 74 58 49 42 37 30 22 42 35 36 20 34 35 37 37 28 23 25 34 39 37 38 39 34 30 27 27 27 27 26 24 22 20 19 18 16 13 13 13 12 13 12 12 14 13
43 49 33 60 66 52 51 41 35 42 30 28 44 37 34 21 31 33 39 33 26 26 30 40 37 37 40 38 35 31 28 28 28 28 26 24 21 20 19 17 14 14 15 14 15 14 12 15 15
49 48 49 59 45 39 47 41 50 42 36 33 40 36 34 31 29 26 36 31 37 35 31 37 36 40 40 40 37 34 31 30 30 29 28 27 23 21 20 19 16 16 16 16 15 16 15 14 16
41 43 47 53 50 53 38 46 38 49 53 37 32 43 36 32 26 32 31 33 34 35 36 36 41 37 40 42 39 37 34 33 32 32 31 29 27 23 23 21 18 18 18 17 17 18 18 17 17
21 41 41 54 61 53 34 34 43 47 45 56 47 42 35 29 38 32 38 36 39 41 37 37 42 39 41 43 42 39 35 35 35 36 34 32 30 27 26 24 21 20 20 19 19 20 19 20 19
17 28 45 56 42 40 37 46 51 50 43 50 49 47 42 29 36 34 41 44 42 42 43 36 38 45 39 42 43 41 41 40 39 38 37 36 32 30 30 27 24 24 22 22 22 22 22 22 20
22 33 31 37 42 45 49 54 41 46 58 47 46 47 41 49 37 38 41 41 43 41 43 44 38 42 44 40 42 44 44 44 43 42 40 39 35 32 33 30 28 27 26 25 24 24 24 24 22
25 28 30 34 31 38 37 44 36 38 49 49 52 44 52 49 55 41 41 38 46 40 39 45 46 40 43 43 44 45 46 49 48 46 46 42 38 36 35 32 30 28 28 26 25 26 25 24 23
26 28 29 30 32 32 35 42 38 46 40 46 51 48 51 66 34 55 49 48 47 43 44 45 44 46 43 44 44 47 50 57 54 53 51 44 40 37 36 34 31 30 29 27 28 27 27 27 24
31 31 32 28 30 32 35 40 37 49 32 41 52 53 54 57 48 48 45 48 42 44 43 44 44 45 47 47 48 46 41 58 64 59 53 44 39 38 38 35 33 31 31 27 29 29 28 27 25
26 32 32 33 32 33 29 42 38 44 45 45 54 54 53 63 54 49 48 50 48 48 46 44 43 45 49 49 50 50 40 45 56 54 46 47 41 41 39 37 34 32 30 31 33 32 29 28 26
32 32 38 34 28 30 27 45 34 33 33 37 40 67 51 67 55 47 44 46 45 44 42 40 44 44 47 51 53 54 46 44 40 58 60 51 46 44 40 37 35 34 34 35 33 32 32 30 28
26 34 34 37 30 31 32 42 35 30 27 33 40 45 61 50 50 45 38 51 58 59 49 54 51 44 45 48 55 54 50 45 44 42 47 45 46 49 42 38 36 36 35 36 35 35 34 32 30
27 28 29 34 29 28 33 36 33 28 23 30 30 36 63 60 51 50 39 40 40 55 59 57 56 54 51 50 53 54 50 46 42 47 41 54 47 49 48 43 40 39 39 40 38 37 35 34 31
29 32 35 35 32 33 34 35 34 29 27 22 32 25 36 56 54 45 42 44 45 44 50 51 50 53 52 55 53 54 53 47 40 39 42 51 46 57 54 46 41 40 40 40 38 38 37 34 33
25 27 32 32 30 29 30 30 32 29 30 30 27 32 29 43 56 48 46 44 39 45 46 46 43 50 52 53 52 50 48 45 41 38 37 47 43 47 57 50 43 42 41 42 41 39 37 36 34
26 28 28 29 24 24 24 30 30 29 28 28 28 36 28 33 32 44 33 53 51 45 45 45 45 47 52 52 50 47 50 46 45 42 46 42 42 50 54 51 50 46 44 43 41 39 38 37 36
23 22 25 26 24 20 18 11 21 19 32 28 25 26 30 40 29 32 33 40 54 51 47 43 45 44 47 52 54 49 49 50 49 41 34 41 42 39 55 54 51 48 46 44 42 40 39 37 34
36 23 20 22 24 24 29 17 18 12 20 16 29 32 31 41 28 41 34 43 50 51 46 40 44 46 47 50 53 49 44 46 45 44 40 41 53 43 51 60 52 51 47 45 43 42 40 38 36
24 21 24 25 17 12 27 17 2 5 5 20 25 34 40 48 37 31 24 36 45 50 45 42 43 47 45 46 49 47 43 45 46 47 41 39 46 46 51 59 58 56 49 47 45 44 42 40 38
19 19 5 6 7 10 8 16 4 3 6 9 15 25 35 41 50 31 29 30 41 46 45 43 40 45 44 43 45 48 44 45 44 43 43 49 46 46 51 44 62 52 50 47 47 46 44 42 40
15 11 10 7 4 9 11 4 4 4 4 7 8 14 24 38 48 29 27 34 37 41 55 42 37 43 45 46 45 44 46 47 41 37 44 41 40 40 48 49 54 56 51 48 52 49 46 45 43
28 19 23 12 23 12 7 8 5 3 5 5 7 12 20 30 42 40 23 37 38 50 45 39 43 45 46 47 48 49 41 41 40 42 39 44 44 47 50 51 51 57 57 49 50 51 50 48 45
20 21 9 7 6 6 5 8 7 8 7 6 4 9 15 29 34 40 45 32 30 36 41 47 55 49 45 42 43 45 47 43 43 45 41 37 40 44 46 47 49 56 52 51 63 55 53 51 48
17 16 10 13 10 5 3 5 9 11 11 9 5 3 13 27 32 34 33 34 30 23 22 43 44 45 42 41 37 39 41 42 34 35 42 39 35 37 43 41 43 53 51 61 61 63 55 54 51
11 20 15 6 8 12 11 5 16 12 11 10 7 5 6 14 24 34 38 34 32 38 32 26 38 45 48 47 45 42 38 34 30 30 34 30 32 32 40 38 45 50 47 54 60 60 58 54 52
Wind_Direction
235 235 225 220 228 237 242 234 239 241 240 234 230 222 230 221 213 207 210 221 227 212 200 201 195 199 194 195 197 197 198 204 205 191 181 179 179 180 182 174 187 193 202 169 159 154 150 138 138
226 223 218 222 227 236 240 235 234 235 234 242 222 226 225 226 214 229 226 223 220 210 202 199 199 201 200 195 200 200 199 200 207 201 187 180 181 184 187 183 190 190 205 177 170 161 157 140 144
221 216 216 223 231 235 236 233 239 235 238 238 219 227 219 231 211 221 232 221 212 211 210 201 200 197 200 202 201 204 202 199 202 202 196 187 186 186 191 193 191 192 194 188 177 181 152 154 146
216 211 221 226 231 237 235 230 233 244 233 236 228 225 232 218 209 206 240 217 215 217 214 206 204 206 202 202 203 205 206 203 201 201 201 195 194 193 193 200 198 195 196 189 180 183 164 158 153
213 207 222 233 239 241 239 241 239 244 249 228 218 229 238 230 222 202 228 221 211 217 217 212 206 207 208 205 204 206 209 209 205 202 201 198 199 199 198 204 202 195 198 189 185 179 174 161 162
210 217 223 232 243 246 244 238 242 246 253 240 228 231 228 248 219 219 222 224 203 213 217 209 209 206 208 209 204 207 209 212 208 205 203 201 203 204 204 208 206 200 194 189 188 181 183 171 162
220 226 228 239 247 250 247 246 241 242 243 233 234 225 231 235 243 231 226 227 213 218 213 210 204 209 209 209 208 207 209 212 212 210 207 204 206 206 209 211 209 204 197 191 190 182 181 185 169
230 239 240 237 244 251 253 244 242 244 243 244 230 235 224 223 238 238 228 220 214 212 216 216 211 211 210 208 209 206 210 210 213 214 213 207 205 207 211 212 211 207 200 197 191 190 177 187 185
248 243 245 243 246 247 261 250 233 239 241 235 236 225 230 229 237 225 228 219 219 211 209 212 214 210 211 208 206 208 213 214 213 215 216 214 206 205 210 212 210 206 203 199 195 193 183 185 191
243 249 246 240 251 260 255 255 257 251 239 228 233 234 228 225 234 226 228 223 221 209 206 204 211 211 208 209 210 208 211 215 215 216 216 217 212 207 210 210 211 205 205 202 197 195 188 185 194
255 254 262 258 253 259 264 259 257 258 245 229 223 229 230 230 224 223 220 223 216 212 215 213 210 211 214 211 210 213 214 216 217 217 217 217 213 210 212 209 211 206 205 203 201 197 193 189 191
262 257 262 264 263 258 271 265 267 259 252 237 222 224 222 220 219 232 212 221 226 230 226 218 216 212 212 214 213 216 217 217 218 219 220 217 213 212 214 213 212 208 208 205 200 202 196 193 190
264 270 270 267 267 268 265 263 273 261 262 244 232 220 214 217 221 228 231 238 230 228 218 215 218 218 215 215 216 216 216 218 218 217 220 216 215 214 214 214 212 208 209 205 203 202 200 199 196
274 269 265 262 265 267 270 272 270 262 270 262 241 228 213 209 218 218 221 221 219 220 210 209 217 220 219 219 224 227 230 221 222 215 215 218 213 213 215 214 211 208 209 204 206 204 204 203 200
274 269 270 264 266 267 271 271 268 273 264 272 260 239 214 212 214 204 220 219 214 215 213 218 215 223 224 224 227 233 230 230 208 216 207 216 210 211 214 214 212 209 208 204 206 203 205 206 204
269 267 268 264 266 266 263 269 273 274 262 257 262 244 214 217 215 221 218 215 211 211 232 228 228 220 225 226 227 233 230 231 225 228 233 220 208 212 212 213 212 209 209 208 205 205 204 206 207
268 262 265 272 266 267 263 269 275 273 266 261 259 255 242 208 210 204 210 229 230 223 232 243 225 226 226 228 227 230 233 233 234 220 214 225 214 213 207 212 211 209 208 211 207 205 207 208 208
275 274 273 270 270 269 270 266 267 269 264 250 243 248 245 245 206 201 203 223 224 231 225 234 234 227 224 227 228 228 230 231 231 234 229 226 214 221 207 209 209 209 210 210 208 209 208 208 209
278 277 273 272 273 276 271 266 264 259 256 255 245 247 253 245 203 195 202 214 223 223 218 224 229 223 221 225 225 225 227 230 233 236 230 224 225 211 205 206 209 211 213 213 211 211 211 211 209
275 276 273 274 272 270 267 264 260 254 246 244 239 236 243 246 240 221 217 208 217 216 216 218 221 214 218 222 223 223 226 229 230 234 238 225 226 224 208 209 207 212 214 214 212 212 213 211 213
283 270 272 275 284 277 266 263 257 249 239 238 229 226 233 232 226 217 216 206 211 212 209 213 212 211 219 222 219 219 220 224 226 228 228 229 228 225 211 215 208 208 214 216 214 213 214 217 214
287 296 273 274 271 265 267 259 258 236 226 220 222 228 226 232 226 222 215 210 218 211 210 216 218 215 222 221 217 218 221 226 227 228 225 232 240 229 215 220 217 205 213 213 214 214 215 216 217
296 294 277 271 263 268 263 267 280 287 170 182 201 211 210 227 217 225 218 216 213 212 210 221 219 215 220 218 221 223 225 228 229 226 230 230 230 239 229 217 227 212 211 212 213 213 215 215 216
295 295 275 265 260 254 252 236 24 50 180 191 193 203 214 223 227 197 210 192 210 212 212 222 216 213 217 219 219 221 223 225 224 225 227 229 231 232 227 220 224 225 209 212 212 213 214 217 216
294 309 276 209 208 240 279 192 80 349 277 218 208 201 213 220 227 215 213 205 205 204 203 205 212 215 217 219 220 224 225 227 225 228 231 233 235 220 219 230 224 231 219 215 213 212 213 216 216
352 304 301 314 300 329 174 122 85 344 308 256 231 203 200 212 226 232 218 213 201 198 213 214 208 214 216 220 222 226 226 228 225 226 225 229 228 230 231 231 228 229 222 216 214 212 213 215 215
347 338 297 277 275 263 117 103 87 293 302 271 228 207 204 216 225 233 221 205 210 203 211 206 201 203 218 221 226 228 226 226 227 226 228 225 234 235 231 221 224 220 225 219 215 214 214 215 215
359 344 344 290 285 319 128 131 32 344 303 318 252 208 198 204 222 235 237 239 202 205 209 184 188 204 211 211 215 226 229 233 235 213 213 223 226 229 217 218 225 223 226 222 214 216 215 215 216
5 4 356 299 268 302 298 82 348 347 326 332 321 257 199 205 216 224 236 253 234 231 232 191 183 197 201 203 210 215 227 213 191 207 204 216 222 224 209 208 221 222 225 227 228 212 214 216 216
10 3 357 322 334 320 287 88 339 332 327 318 325 316 231 210 208 213 222 217 235 237 241 254 190 199 207 210 211 209 196 203 207 208 212 220 217 205 205 211 215 215 223 222 208 210 213 216 219